[[{"header":{"parameterUnit":"m.s-1","parameterCategory":2,"la1":30.2991,"la2":30.254,"lo1":-89.0895,"lo2":-89.0444,"dy":0.0017,"dx":0.0017,"nx":28,"ny":28,"refTime":"2025-04-18T03:00:00:Z","depth":"0","parameterNumber":2,"parameterNumberName":"U-component_of_CURRENTS"},"data":[0,0,0,0,0,0,0,0,0,0,0,0,0,0,0,0,0,0,0,0,0,0,0,0,0,0,0,0,0,0,0,0,0,0,0,0,0,0,0,0,0,0,0,0,0,0,0,0,0,0,0,0,0,0,0,0,0,0,0.1623,0.1623,0,0.1606,0.1605,0.1605,0.1579,0.1579,0.1579,0.1578,0.1566,0.1565,0.1565,0,0,0,0,0,0,0,0,0,0,0,0,0,0.1687,0.1685,0.1623,0.1623,0.1623,0.1606,0.1605,0.1605,0.1579,0.1579,0.1578,0.1578,0.1566,0.1565,0.1565,0,0,0,0,0,0,0,0,0,0,0,0,0,0.1662,0.1685,0.1623,0.1609,0.1607,0.1606,0.1605,0.1605,0.1579,0.1579,0.1578,0.1578,0.1566,0.1566,0.1565,0.1576,0,0,0.1565,0.1565,0,0,0,0,0,0,0,0,0.1663,0.166,0.1611,0.161,0.1608,0.1595,0.1623,0.1596,0.1579,0.1589,0.1578,0.1578,0.1577,0.1576,0.1572,0.1575,0.1575,0.1565,0.1565,0.1565,0.1565,0,0,0,0,0,0,0,0.1665,0.1661,0.1615,0.1611,0.1609,0.1622,0.1617,0.1618,0.1585,0.1588,0.1586,0.1586,0.1576,0.1572,0.1572,0.1574,0.1565,0.1565,0.1565,0.1565,0.166,0.1663,0,0,0,0,0,0,0.1667,0.1662,0.1616,0.1615,0.1637,0.1621,0.1615,0.1599,0.1585,0.1583,0.1587,0.1585,0.1573,0.1572,0.1571,0.1646,0.1565,0.1565,0.1565,0.1658,0.1661,0.1663,0,0,0,0,0,0,0.1668,0.1663,0.1616,0.164,0.1635,0.162,0.1602,0.1599,0.1599,0.1584,0.1582,0.1591,0.1572,0.1571,0.1584,0.1642,0.1565,0.1565,0.1655,0.1659,0.1662,0.1754,0,0,0,0,0,0,0.167,0.1663,0.1658,0.1639,0.1634,0.1629,0.1602,0.1599,0.16,0.1598,0.1587,0.1585,0.1572,0.1584,0.1584,0.1641,0.1565,0.1651,0.1656,0.1661,0.1748,0.176,0.1771,0,0,0,0,0,0.1672,0.1665,0.1658,0.1653,0.1625,0.163,0.1629,0.1616,0.1601,0.1612,0.1603,0.1585,0.1616,0.1586,0.1585,0.1643,0.1649,0.1655,0.1661,0.1742,0.1758,0.1771,0,0,0,0,0,0,0.1689,0.1661,0.1653,0.1637,0.1642,0.1627,0.163,0.1623,0.1623,0.1619,0.16,0.1599,0.1649,0.1626,0.1594,0.1688,0.1637,0.1643,0.17,0.1714,0.1726,0.1745,0.1565,0,0,0,0,0,0.1691,0.1678,0.1666,0.1657,0.1657,0.1646,0.1647,0.1643,0.1638,0.1636,0.1634,0.164,0.1673,0.1673,0.1696,0.1721,0.1749,0.1766,0.1778,0.1787,0.1805,0.1908,0.1932,0.1682,0.1682,0.1682,0,0,0.1695,0.168,0.1672,0.1662,0.1657,0.1672,0.1645,0.1652,0.1675,0.1636,0.1667,0.1686,0.1694,0.1744,0.1764,0.1726,0.1873,0.1795,0.1803,0.1815,0.1917,0.1941,0.1963,0.1686,0.1685,0.1685,0,0,0.1705,0.1684,0.1681,0.1692,0.1695,0.1694,0.17,0.1699,0.1708,0.1736,0.174,0.179,0.1799,0.1839,0.1854,0.1941,0.1946,0.1949,0.2005,0.2106,0.2128,0.2147,0.221,0.2235,0.1937,0.1938,0.1938,0,0.1715,0.1706,0.1688,0.1702,0.172,0.1707,0.1732,0.1742,0.1754,0.1784,0.1757,0.1855,0.1856,0.1952,0.1982,0.1972,0.2012,0.1947,0.2123,0.2143,0.2161,0.2221,0.2247,0.1943,0.1942,0.1942,0.1941,0,0.173,0.1734,0.1738,0.1749,0.177,0.1788,0.1806,0.1832,0.184,0.1865,0.1961,0.1979,0.2037,0.2059,0.2038,0.218,0.2161,0.2141,0.2087,0.2192,0.2248,0.2273,0.195,0.1948,0.1947,0.1945,0,0,0.1727,0.1742,0.1747,0.1772,0.18,0.1821,0.1868,0.1922,0.1974,0.2008,0.2097,0.2164,0.2187,0.2207,0.2217,0.2293,0.2448,0.2265,0.2268,0.2327,0.2657,0.2477,0.2487,0.246,0.2465,0.2469,0.2643,0,0.1749,0.178,0.179,0.1847,0.1869,0.1896,0.1953,0.2008,0.2049,0.2133,0.2191,0.228,0.2238,0.2286,0.2359,0.2439,0.2519,0.2402,0.2547,0.2551,0.2379,0.2512,0.2328,0.2453,0.2667,0.2671,0.2674,0,0.1768,0.1787,0.1833,0.1906,0.1922,0.1962,0.2061,0.2112,0.222,0.2263,0.2354,0.2396,0.2524,0.2471,0.2657,0.2583,0.2632,0.2679,0.2686,0.2505,0.2418,0.2384,0.249,0.238,0.2712,0.2709,0.2707,0,0.1781,0.1829,0.1866,0.1889,0.1961,0.2006,0.2056,0.2156,0.2225,0.2359,0.2431,0.2562,0.2641,0.2746,0.2792,0.2757,0.298,0.2944,0.2835,0.2822,0.2685,0.2649,0.2699,0.31,0.3099,0.3099,0.3098,0,0.1807,0.1842,0.1872,0.19,0.1986,0.2028,0.2139,0.2207,0.2322,0.2429,0.2501,0.2602,0.2718,0.2824,0.2869,0.2911,0.3044,0.2881,0.2872,0.2706,0.2672,0.258,0.2519,0.3105,0.3104,0.3103,0.3101,0,0.1828,0.1835,0.1896,0.1964,0.1992,0.2061,0.2182,0.2271,0.2359,0.2501,0.2554,0.2682,0.2804,0.288,0.3047,0.2987,0.2939,0.3042,0.2806,0.2763,0.2497,0.2446,0.2401,0.233,0.2972,0.2969,0.2966,0,0.1845,0.1869,0.1944,0.2002,0.2037,0.2129,0.2211,0.2296,0.238,0.2539,0.2616,0.2748,0.2825,0.2951,0.2899,0.294,0.2858,0.276,0.265,0.248,0.2423,0.2323,0.2263,0.2528,0.2522,0.2517,0.2513,0,0.1917,0.1934,0.1999,0.2088,0.2169,0.223,0.2328,0.2375,0.2478,0.2561,0.2655,0.272,0.2787,0.2703,0.2689,0.2687,0.2541,0.2653,0.2584,0.2162,0.1961,0.1887,0.2397,0.2469,0.2473,0.2476,0.2479,0.2481,0.2004,0.2068,0.2147,0.2217,0.2284,0.2298,0.2314,0.2385,0.2445,0.2494,0.2604,0.2616,0.253,0.2462,0.243,0.2168,0.2236,0.2051,0.2037,0.1979,0.1793,0.2159,0.2131,0.2133,0.2135,0.2137,0.2139,0,0.2149,0.2201,0.2277,0.2333,0.2343,0.235,0.2379,0.2341,0.2332,0.239,0.2415,0.2282,0.214,0.2046,0.1759,0.1589,0.1536,0.1506,0.1377,0.138,0.1814,0.1669,0.1407,0.1407,0.1407,0.1408,0.1408,0.1408,0.2255,0.2354,0.2344,0.2355,0.2353,0.2299,0.2259,0.2192,0.2176,0.2057,0.1958,0.1945,0.1812,0.1486,0.1217,0.1162,0.1055,0.09,0.0981,0.1305,0.1356,0.1406,0.1259,0.0915,0.0915,0.0472,0.0468,0.0465]},{"header":{"parameterUnit":"m.s-1","parameterCategory":2,"la1":30.2991,"la2":30.254,"lo1":-89.0895,"lo2":-89.0444,"dy":0.0017,"dx":0.0017,"nx":28,"ny":28,"refTime":"2025-04-18T03:00:00:Z","depth":"0","parameterNumber":3,"parameterNumberName":"V-component_of_CURRENTS"},"data":[0,0,0,0,0,0,0,0,0,0,0,0,0,0,0,0,0,0,0,0,0,0,0,0,0,0,0,0,0,0,0,0,0,0,0,0,0,0,0,0,0,0,0,0,0,0,0,0,0,0,0,0,0,0,0,0,0,0,0.0082,0.0082,0,0.0076,0.0076,0.0076,0.007,0.007,0.007,0.007,0.0076,0.0076,0.0076,0,0,0,0,0,0,0,0,0,0,0,0,0,0.0105,0.0104,0.0082,0.0082,0.0082,0.0076,0.0076,0.0076,0.007,0.007,0.007,0.007,0.0076,0.0076,0.0076,0,0,0,0,0,0,0,0,0,0,0,0,0,0.0097,0.0104,0.0082,0.0078,0.0078,0.0076,0.0076,0.0076,0.007,0.007,0.007,0.007,0.0076,0.0076,0.0076,0.0082,0,0,0.0078,0.0078,0,0,0,0,0,0,0,0,0.0097,0.0096,0.0079,0.0079,0.0078,0.0074,0.0086,0.0079,0.007,0.0073,0.007,0.007,0.0076,0.0077,0.0076,0.0082,0.0082,0.0078,0.0078,0.0078,0.0078,0,0,0,0,0,0,0,0.0098,0.0096,0.008,0.0079,0.0078,0.0082,0.0081,0.0085,0.0076,0.0073,0.0072,0.0072,0.0076,0.0075,0.0076,0.0082,0.0078,0.0078,0.0078,0.0078,0.0116,0.0116,0,0,0,0,0,0,0.0097,0.0097,0.008,0.008,0.0087,0.0082,0.008,0.0075,0.0076,0.0075,0.0072,0.0071,0.0075,0.0075,0.0076,0.0113,0.0078,0.0078,0.0079,0.0115,0.0116,0.0117,0,0,0,0,0,0,0.0098,0.0096,0.0081,0.0088,0.0087,0.0082,0.0076,0.0075,0.0076,0.0075,0.0075,0.0073,0.0075,0.0076,0.0085,0.0112,0.0078,0.0079,0.0114,0.0115,0.0116,0.0168,0,0,0,0,0,0,0.0098,0.0096,0.0093,0.0088,0.0086,0.0086,0.0076,0.0075,0.0075,0.0075,0.0076,0.0076,0.0075,0.0084,0.0085,0.0112,0.0079,0.0113,0.0114,0.0116,0.0166,0.0171,0.0176,0,0,0,0,0,0.0099,0.0098,0.0093,0.0091,0.0082,0.0087,0.0087,0.0083,0.0075,0.0081,0.008,0.0076,0.0094,0.0085,0.0086,0.0114,0.0112,0.0114,0.0116,0.0163,0.017,0.0176,0,0,0,0,0,0,0.0106,0.0097,0.0092,0.0087,0.0089,0.0086,0.0088,0.0084,0.0087,0.0086,0.0082,0.0083,0.0103,0.0097,0.0087,0.0128,0.0104,0.0106,0.014,0.0146,0.0151,0.0196,0.0079,0,0,0,0,0,0.0106,0.0104,0.0098,0.0097,0.0096,0.0092,0.0092,0.0091,0.0092,0.0092,0.0095,0.0099,0.0111,0.0118,0.0123,0.0143,0.0159,0.0162,0.0167,0.0172,0.0208,0.0244,0.0256,0.0122,0.0122,0.0122,0,0,0.0108,0.0104,0.0101,0.0098,0.0097,0.011,0.0092,0.0096,0.0117,0.0093,0.012,0.0115,0.0118,0.0144,0.0153,0.0143,0.0214,0.0174,0.0178,0.0213,0.0247,0.0261,0.0273,0.0123,0.0123,0.0123,0,0,0.0119,0.0107,0.0112,0.0117,0.0119,0.0121,0.0124,0.0125,0.0135,0.0152,0.0147,0.0168,0.0169,0.0195,0.0203,0.0241,0.0237,0.0227,0.0295,0.0329,0.0341,0.0352,0.0375,0.0388,0.0233,0.0233,0.0233,0,0.0123,0.0132,0.0116,0.013,0.0145,0.013,0.0154,0.0161,0.0169,0.0199,0.0168,0.0218,0.0207,0.0273,0.0279,0.0259,0.0266,0.0271,0.0338,0.0349,0.0359,0.0381,0.0394,0.0236,0.0236,0.0235,0.0235,0,0.0144,0.0155,0.0161,0.0176,0.0188,0.0205,0.0216,0.0236,0.024,0.026,0.0315,0.0309,0.0352,0.0338,0.0317,0.0391,0.0367,0.0337,0.0326,0.0376,0.0395,0.0408,0.024,0.0239,0.0238,0.0237,0,0,0.0146,0.0172,0.0175,0.0207,0.0219,0.0242,0.0277,0.0326,0.0384,0.0384,0.0472,0.0472,0.0482,0.0494,0.0477,0.0498,0.0554,0.0448,0.0448,0.048,0.0622,0.0568,0.0577,0.0526,0.0529,0.0531,0.06,0,0.0173,0.0219,0.0223,0.0283,0.0313,0.0327,0.0375,0.0419,0.0452,0.053,0.0546,0.061,0.0537,0.0569,0.058,0.0578,0.0593,0.0539,0.0563,0.0565,0.0518,0.0592,0.0575,0.0633,0.0613,0.0615,0.0617,0,0.0195,0.023,0.0288,0.0368,0.0384,0.042,0.0519,0.0563,0.0653,0.0685,0.0747,0.0761,0.0826,0.074,0.0776,0.074,0.0692,0.0667,0.0668,0.062,0.0537,0.0582,0.0657,0.065,0.0636,0.0635,0.0633,0,0.0225,0.0284,0.0341,0.0362,0.0437,0.0484,0.0533,0.0617,0.0693,0.0802,0.0879,0.093,0.0986,0.0951,0.0888,0.0842,0.0908,0.0839,0.0747,0.0742,0.0739,0.0728,0.0825,0.0858,0.0858,0.0857,0.0857,0,0.0261,0.0314,0.0364,0.0401,0.0503,0.0534,0.0657,0.0714,0.0827,0.0952,0.0972,0.1077,0.1038,0.106,0.0968,0.0916,0.0974,0.0797,0.0773,0.0751,0.0742,0.0742,0.0713,0.086,0.0859,0.0859,0.0858,0,0.0298,0.0319,0.0402,0.0485,0.0519,0.0597,0.0731,0.0832,0.0918,0.1086,0.1135,0.1221,0.1252,0.1188,0.1151,0.1035,0.0947,0.0924,0.0895,0.0865,0.0753,0.0725,0.0757,0.0732,0.0863,0.0862,0.0862,0,0.0329,0.0367,0.0463,0.0526,0.057,0.0682,0.0773,0.0871,0.0984,0.1175,0.1274,0.1352,0.1419,0.135,0.117,0.1036,0.0958,0.0905,0.0811,0.0786,0.0739,0.0687,0.066,0.0825,0.0824,0.0824,0.0823,0,0.0406,0.0427,0.0496,0.0611,0.0708,0.082,0.0952,0.1048,0.1189,0.1316,0.1479,0.1545,0.1488,0.1369,0.1169,0.1045,0.0883,0.0884,0.0889,0.076,0.0686,0.0635,0.073,0.0817,0.0818,0.0818,0.0818,0.0819,0.0473,0.0534,0.0615,0.0724,0.0826,0.0951,0.104,0.1181,0.1341,0.1525,0.1592,0.1688,0.1533,0.1265,0.1124,0.0857,0.0829,0.0763,0.0746,0.0707,0.065,0.0722,0.075,0.075,0.075,0.075,0.075,0,0.0575,0.0636,0.0734,0.0855,0.0951,0.0991,0.1159,0.1237,0.1398,0.1569,0.1683,0.1647,0.1482,0.1265,0.0913,0.0764,0.0674,0.0695,0.0655,0.0641,0.0753,0.0718,0.0705,0.0705,0.0705,0.0705,0.0705,0.0705,0.0642,0.0745,0.0778,0.0936,0.1009,0.1118,0.1195,0.1308,0.1429,0.1556,0.1595,0.1634,0.1511,0.1075,0.0816,0.0735,0.0657,0.0588,0.0574,0.0688,0.0694,0.07,0.0665,0.064,0.064,0.046,0.0459,0.0457]}],[{"header":{"parameterUnit":"m.s-1","parameterCategory":2,"la1":30.2991,"la2":30.254,"lo1":-89.0895,"lo2":-89.0444,"dy":0.0017,"dx":0.0017,"nx":28,"ny":28,"refTime":"2025-04-18T03:00:00:Z","depth":"2","parameterNumber":2,"parameterNumberName":"U-component_of_CURRENTS"},"data":[0,0,0,0,0,0,0,0,0,0,0,0,0,0,0,0,0,0,0,0,0,0,0,0,0,0,0,0,0,0,0,0,0,0,0,0,0,0,0,0,0,0,0,0,0,0,0,0,0,0,0,0,0,0,0,0,0,0,0.1639,0.1639,0,0.1628,0.1628,0.1627,0.1604,0.1603,0.1603,0.1603,0.1594,0.1594,0.1594,0,0,0,0,0,0,0,0,0,0,0,0,0,0.1693,0.1692,0.1639,0.1639,0.1639,0.1628,0.1628,0.1627,0.1604,0.1603,0.1603,0.1602,0.1594,0.1594,0.1594,0,0,0,0,0,0,0,0,0,0,0,0,0,0.1673,0.1691,0.1639,0.1627,0.1626,0.1628,0.1628,0.1627,0.1604,0.1603,0.1603,0.1602,0.1594,0.1594,0.1594,0.1605,0,0,0.1595,0.1595,0,0,0,0,0,0,0,0,0.1674,0.1671,0.1629,0.1628,0.1627,0.1618,0.1644,0.1621,0.1604,0.161,0.1603,0.1602,0.1604,0.1603,0.16,0.1604,0.1604,0.1595,0.1595,0.1595,0.1595,0,0,0,0,0,0,0,0.1675,0.1671,0.1633,0.1629,0.1628,0.1641,0.1637,0.164,0.1609,0.161,0.1608,0.161,0.1603,0.16,0.1599,0.1604,0.1595,0.1595,0.1595,0.1595,0.1687,0.1689,0,0,0,0,0,0,0.1678,0.1672,0.1633,0.1633,0.1652,0.164,0.1636,0.162,0.1609,0.1607,0.1611,0.1609,0.16,0.1599,0.1599,0.1675,0.1595,0.1595,0.1595,0.1684,0.1687,0.169,0,0,0,0,0,0,0.1679,0.1674,0.1634,0.1655,0.1651,0.164,0.1623,0.162,0.1622,0.161,0.1607,0.1615,0.1599,0.1599,0.1613,0.1672,0.1595,0.1595,0.1682,0.1685,0.1689,0.1787,0,0,0,0,0,0,0.168,0.1674,0.1671,0.1654,0.165,0.165,0.1623,0.162,0.1624,0.1622,0.1613,0.1611,0.1599,0.1613,0.1613,0.1671,0.1595,0.1679,0.1683,0.1687,0.1781,0.1793,0.1804,0,0,0,0,0,0.1682,0.1676,0.167,0.1666,0.1643,0.1651,0.1651,0.164,0.1625,0.1637,0.1628,0.1612,0.1642,0.1614,0.1614,0.1674,0.1676,0.1682,0.1687,0.1775,0.1791,0.1804,0,0,0,0,0,0,0.1697,0.1672,0.1666,0.1652,0.1661,0.1648,0.1653,0.1647,0.1648,0.1644,0.1626,0.1625,0.1677,0.1652,0.1622,0.1715,0.1664,0.1669,0.1731,0.1745,0.1757,0.1775,0.1595,0,0,0,0,0,0.17,0.1688,0.168,0.1674,0.1674,0.1667,0.1669,0.1667,0.1663,0.1662,0.1661,0.1666,0.1699,0.1699,0.1722,0.1749,0.1766,0.1793,0.1805,0.1815,0.1831,0.1925,0.1948,0.1707,0.1707,0.1707,0,0,0.1704,0.1692,0.1685,0.1678,0.1675,0.1692,0.1666,0.1676,0.1702,0.1662,0.1695,0.1713,0.1719,0.1771,0.179,0.1752,0.1889,0.1822,0.183,0.1841,0.1934,0.1957,0.1978,0.1711,0.171,0.171,0,0,0.1714,0.1696,0.1694,0.1708,0.1715,0.1715,0.1722,0.1724,0.1736,0.1766,0.1769,0.1817,0.1828,0.1866,0.188,0.1966,0.1962,0.1975,0.2033,0.2124,0.2145,0.2164,0.2199,0.222,0.1964,0.1964,0.1964,0,0.1724,0.172,0.1702,0.1718,0.1739,0.1728,0.1756,0.1768,0.1783,0.1815,0.1789,0.188,0.1884,0.1975,0.2009,0.1998,0.2026,0.1976,0.2141,0.216,0.2177,0.221,0.2232,0.197,0.1969,0.1968,0.1968,0,0.1739,0.1749,0.1754,0.1768,0.1791,0.1814,0.1833,0.1863,0.1873,0.1898,0.1991,0.2006,0.206,0.2083,0.2066,0.2202,0.2174,0.216,0.2106,0.2208,0.2234,0.2256,0.1977,0.1975,0.1974,0.1972,0,0,0.1733,0.1757,0.1765,0.1794,0.1825,0.1847,0.1899,0.1957,0.2011,0.2041,0.2127,0.2194,0.2212,0.2231,0.2239,0.2309,0.2449,0.2284,0.2287,0.232,0.2624,0.2417,0.242,0.247,0.2474,0.2478,0.2586,0,0.1759,0.1795,0.1809,0.1873,0.19,0.1931,0.1989,0.2047,0.209,0.217,0.2219,0.2305,0.2264,0.231,0.2376,0.2448,0.2512,0.2419,0.2519,0.2521,0.2328,0.2441,0.2227,0.229,0.2607,0.261,0.2613,0,0.1781,0.1805,0.1858,0.1941,0.1958,0.2,0.2104,0.2157,0.226,0.2305,0.2384,0.2421,0.2536,0.2486,0.264,0.2583,0.2616,0.265,0.2655,0.2445,0.2355,0.2244,0.2316,0.2648,0.2645,0.2642,0.264,0,0.1793,0.1854,0.1898,0.1923,0.2001,0.205,0.2102,0.2201,0.2274,0.24,0.247,0.2581,0.2653,0.2733,0.2769,0.2735,0.2922,0.2881,0.2722,0.2706,0.2532,0.2491,0.3007,0.3007,0.3007,0.3006,0.3006,0,0.1824,0.1867,0.1906,0.1935,0.2029,0.2072,0.2187,0.2257,0.2369,0.2479,0.254,0.2636,0.2728,0.2816,0.2839,0.2828,0.2976,0.2757,0.2738,0.2553,0.2515,0.2826,0.2804,0.301,0.301,0.3009,0.3008,0,0.1848,0.1859,0.1929,0.2005,0.2036,0.2108,0.2235,0.2326,0.2411,0.2554,0.2606,0.2725,0.2801,0.2844,0.2973,0.2894,0.2929,0.2888,0.2623,0.2567,0.2632,0.2614,0.2731,0.2725,0.272,0.2716,0.2712,0,0.1867,0.1897,0.1982,0.2042,0.2082,0.2178,0.2264,0.2352,0.2441,0.2601,0.2678,0.2772,0.2768,0.2814,0.2757,0.2721,0.2827,0.2489,0.2371,0.2643,0.2614,0.2603,0.2592,0.2194,0.2186,0.218,0.2175,0,0.1945,0.1967,0.2035,0.2113,0.2199,0.2286,0.2389,0.244,0.2549,0.2619,0.2713,0.2703,0.2678,0.249,0.2381,0.2352,0.2464,0.2352,0.2793,0.2252,0.2133,0.2104,0.2113,0.2121,0.2126,0.213,0.2133,0.2135,0.2032,0.2077,0.2139,0.222,0.2313,0.2357,0.2388,0.246,0.2511,0.2509,0.2591,0.2437,0.2349,0.2012,0.1945,0.1915,0.2077,0.198,0.2003,0.2031,0.1905,0.178,0.1676,0.1679,0.1681,0.1683,0.1685,0,0.2121,0.2156,0.2242,0.23,0.2363,0.2403,0.2459,0.2427,0.2415,0.2312,0.2261,0.1879,0.1653,0.1605,0.1449,0.1396,0.1439,0.1342,0.1398,0.1451,0.1499,0.135,0.0972,0.097,0.0968,0.0966,0,0,0.2161,0.2231,0.223,0.2307,0.2363,0.2378,0.2378,0.2314,0.2195,0.1882,0.1669,0.1585,0.153,0.1222,0.1162,0.1051,0.1256,0.1007,0.1579,0.17,0.1746,0.1863,0.169,0,0,0,0,0]},{"header":{"parameterUnit":"m.s-1","parameterCategory":2,"la1":30.2991,"la2":30.254,"lo1":-89.0895,"lo2":-89.0444,"dy":0.0017,"dx":0.0017,"nx":28,"ny":28,"refTime":"2025-04-18T03:00:00:Z","depth":"2","parameterNumber":3,"parameterNumberName":"V-component_of_CURRENTS"},"data":[0,0,0,0,0,0,0,0,0,0,0,0,0,0,0,0,0,0,0,0,0,0,0,0,0,0,0,0,0,0,0,0,0,0,0,0,0,0,0,0,0,0,0,0,0,0,0,0,0,0,0,0,0,0,0,0,0,0,0.0005,0.0005,0,-0.0001,-0.0001,-0.0001,-0.0005,-0.0005,-0.0005,-0.0005,0.0003,0.0004,0.0004,0,0,0,0,0,0,0,0,0,0,0,0,0,0.0024,0.0024,0.0005,0.0005,0.0005,-0.0001,-0.0001,-0.0001,-0.0005,-0.0005,-0.0005,-0.0005,0.0003,0.0004,0.0004,0,0,0,0,0,0,0,0,0,0,0,0,0,0.0017,0.0024,0.0005,0.0002,0.0002,-0.0001,-0.0001,-0.0001,-0.0005,-0.0005,-0.0005,-0.0005,0.0003,0.0004,0.0004,0.0007,0,0,0.0005,0.0005,0,0,0,0,0,0,0,0,0.0017,0.0016,0.0003,0.0002,0.0002,-0.0002,0.0009,0.0002,-0.0005,-0.0003,-0.0005,-0.0005,0.0003,0.0003,0.0002,0.0007,0.0007,0.0005,0.0005,0.0005,0.0006,0,0,0,0,0,0,0,0.0018,0.0016,0.0002,0.0003,0.0002,0.0005,0.0004,0.0008,0.0,-0.0003,-0.0003,-0.0003,0.0003,0.0001,0.0002,0.0008,0.0005,0.0005,0.0006,0.0006,0.0039,0.004,0,0,0,0,0,0,0.0018,0.0017,0.0003,0.0002,0.001,0.0005,0.0004,-0.0001,0.0,0.0,-0.0003,-0.0004,0.0001,0.0002,0.0002,0.004,0.0005,0.0006,0.0006,0.0038,0.0039,0.004,0,0,0,0,0,0,0.0018,0.0017,0.0003,0.001,0.0008,0.0005,-0.0,-0.0001,0.0,-0.0,-0.0,-0.0001,0.0001,0.0002,0.0011,0.0039,0.0006,0.0006,0.0038,0.0039,0.004,0.0093,0,0,0,0,0,0,0.0019,0.0017,0.0015,0.001,0.0008,0.0009,-0.0,-0.0001,0.0,0.0,0.0002,0.0002,0.0001,0.0011,0.0012,0.0039,0.0007,0.0037,0.0038,0.0039,0.009,0.0095,0.01,0,0,0,0,0,0.0019,0.0018,0.0015,0.0013,0.0005,0.0009,0.0009,0.0006,0.0,0.0006,0.0006,0.0002,0.0019,0.0011,0.0012,0.004,0.0036,0.0038,0.0039,0.0088,0.0094,0.01,0,0,0,0,0,0,0.0026,0.0018,0.0014,0.001,0.0013,0.0009,0.0011,0.0009,0.0012,0.0011,0.0008,0.0009,0.0029,0.0022,0.0013,0.0052,0.0029,0.003,0.0065,0.0071,0.0076,0.0119,0.0007,0,0,0,0,0,0.0026,0.0024,0.002,0.0019,0.0018,0.0015,0.0016,0.0016,0.0017,0.0017,0.0021,0.0025,0.0035,0.0042,0.0047,0.0066,0.0064,0.0085,0.0089,0.0094,0.0128,0.0147,0.0158,0.0045,0.0045,0.0045,0,0,0.0027,0.0024,0.0022,0.002,0.0019,0.0031,0.0016,0.0021,0.004,0.0019,0.0044,0.0041,0.0043,0.0067,0.0076,0.0066,0.0115,0.0096,0.01,0.0133,0.015,0.0161,0.0171,0.0046,0.0046,0.0046,0,0,0.0037,0.0027,0.0032,0.0038,0.0042,0.0043,0.0046,0.0048,0.0057,0.0075,0.007,0.0091,0.0093,0.0116,0.0123,0.0159,0.0139,0.0147,0.0213,0.0229,0.024,0.0249,0.0221,0.0228,0.0152,0.0152,0.0152,0,0.004,0.005,0.0036,0.0049,0.0065,0.0051,0.0074,0.0079,0.0089,0.012,0.0091,0.0135,0.0128,0.0185,0.0196,0.0176,0.0161,0.0189,0.0238,0.0247,0.0255,0.0226,0.0232,0.0155,0.0155,0.0155,0.0154,0,0.0059,0.0072,0.0077,0.0093,0.0104,0.0121,0.013,0.0148,0.0153,0.0177,0.0228,0.0218,0.0258,0.0246,0.0233,0.0295,0.0254,0.0239,0.0227,0.027,0.0235,0.0241,0.0159,0.0158,0.0157,0.0157,0,0,0.0057,0.0086,0.0091,0.0124,0.0134,0.0157,0.0185,0.0234,0.029,0.0288,0.0365,0.0372,0.0383,0.0393,0.0375,0.0387,0.041,0.0343,0.0342,0.0323,0.0415,0.0348,0.0347,0.0398,0.04,0.0402,0.0353,0,0.0083,0.0127,0.0134,0.0195,0.0223,0.0236,0.0279,0.0323,0.0355,0.0424,0.0432,0.0496,0.0432,0.0464,0.0463,0.0444,0.0434,0.0424,0.0371,0.037,0.0312,0.0356,0.0378,0.0334,0.0358,0.0359,0.0359,0,0.0105,0.0137,0.0193,0.0276,0.0293,0.033,0.0422,0.0462,0.0542,0.0573,0.0624,0.0638,0.068,0.0609,0.0588,0.058,0.051,0.0467,0.0464,0.0401,0.0316,0.0302,0.0343,0.0369,0.0368,0.0367,0.0367,0,0.0128,0.0191,0.0246,0.0268,0.0342,0.0391,0.044,0.0519,0.059,0.0687,0.0755,0.0782,0.0822,0.0754,0.0644,0.0635,0.0585,0.0563,0.0424,0.0416,0.043,0.0419,0.0541,0.0541,0.0541,0.0542,0.0542,0,0.0159,0.0213,0.0269,0.0306,0.0407,0.0442,0.0563,0.0616,0.0717,0.0826,0.0847,0.0909,0.0866,0.0822,0.0695,0.0567,0.0618,0.0458,0.0419,0.044,0.0433,0.0467,0.0459,0.054,0.054,0.054,0.0541,0,0.0183,0.0212,0.0295,0.0383,0.042,0.0498,0.0636,0.0711,0.081,0.0945,0.099,0.1041,0.0996,0.0884,0.0779,0.065,0.0521,0.0443,0.0444,0.0407,0.0327,0.0322,0.0343,0.0341,0.0339,0.0337,0.0336,0,0.0209,0.0245,0.0347,0.04,0.0448,0.0562,0.0626,0.0741,0.0817,0.1002,0.105,0.1094,0.1081,0.0883,0.0707,0.0496,0.0458,0.0354,0.0361,0.0358,0.0317,0.0315,0.0313,0.0378,0.0377,0.0377,0.0376,0,0.026,0.0284,0.0332,0.0387,0.0468,0.0583,0.0686,0.0758,0.0894,0.1016,0.1101,0.1126,0.1039,0.0866,0.0617,0.047,0.0402,0.0331,0.0364,0.0416,0.0385,0.0346,0.0344,0.0369,0.037,0.037,0.0371,0.0371,0.0275,0.028,0.0276,0.035,0.0454,0.0522,0.0633,0.0727,0.0831,0.1029,0.1061,0.1126,0.1023,0.0714,0.0505,0.0324,0.0353,0.0267,0.0273,0.0279,0.0283,0.025,0.0207,0.0207,0.0206,0.0206,0.0206,0,0.0185,0.0163,0.0231,0.0265,0.0356,0.0468,0.0614,0.0697,0.0821,0.0986,0.1106,0.095,0.0815,0.0675,0.0423,0.0252,0.0266,0.0175,0.0246,0.0254,0.0261,0.0266,0.0185,0.0184,0.0183,0.0182,0,0,0.0096,0.005,0.0058,0.0118,0.0241,0.0395,0.0528,0.0646,0.0772,0.0881,0.0987,0.1078,0.0888,0.0675,0.0477,0.0339,0.0324,0.0297,0.0335,0.0452,0.046,0.0338,0.0358,0,0,0,0,0]}],[{"header":{"parameterUnit":"m.s-1","parameterCategory":2,"la1":30.2991,"la2":30.254,"lo1":-89.0895,"lo2":-89.0444,"dy":0.0017,"dx":0.0017,"nx":28,"ny":28,"refTime":"2025-04-18T03:00:00:Z","depth":"4","parameterNumber":2,"parameterNumberName":"U-component_of_CURRENTS"},"data":[0,0,0,0,0,0,0,0,0,0,0,0,0,0,0,0,0,0,0,0,0,0,0,0,0,0,0,0,0,0,0,0,0,0,0,0,0,0,0,0,0,0,0,0,0,0,0,0,0,0,0,0,0,0,0,0,0,0,0.0911,0.0911,0,0.0922,0.0922,0.0922,0.0953,0.0953,0.0954,0.0955,0.1,0.1,0.1,0,0,0,0,0,0,0,0,0,0,0,0,0,0.0883,0.0884,0.0911,0.0911,0.0912,0.0922,0.0922,0.0922,0.0952,0.0953,0.0954,0.0955,0.0999,0.1,0.1001,0,0,0,0,0,0,0,0,0,0,0,0,0,0.0894,0.0884,0.0911,0.0929,0.093,0.0922,0.0922,0.0922,0.0952,0.0953,0.0954,0.0956,0.0999,0.1,0.1001,0.0983,0,0,0.1003,0.1003,0,0,0,0,0,0,0,0,0.0893,0.0895,0.0926,0.0927,0.0929,0.0938,0.0929,0.0944,0.0952,0.0943,0.0955,0.0956,0.0982,0.0984,0.0982,0.0985,0.0987,0.1003,0.1003,0.1004,0.1004,0,0,0,0,0,0,0,0.0893,0.0894,0.0914,0.0926,0.0928,0.0924,0.0927,0.0931,0.0956,0.0944,0.0946,0.0949,0.0983,0.0981,0.0983,0.0987,0.1003,0.1004,0.1004,0.1004,0.1072,0.1073,0,0,0,0,0,0,0.0894,0.0894,0.0914,0.0915,0.0915,0.0924,0.0928,0.0933,0.0955,0.096,0.0948,0.095,0.0979,0.0982,0.0985,0.102,0.1004,0.1004,0.1005,0.1071,0.1072,0.1074,0,0,0,0,0,0,0.0893,0.0895,0.0914,0.0905,0.0907,0.0924,0.093,0.0933,0.0951,0.0958,0.0963,0.0965,0.098,0.0984,0.1009,0.102,0.1005,0.1005,0.1069,0.1071,0.1073,0.1055,0,0,0,0,0,0,0.0892,0.0895,0.0907,0.0905,0.0908,0.0918,0.0929,0.0932,0.095,0.0954,0.0974,0.0978,0.0981,0.1008,0.101,0.1021,0.1006,0.1067,0.107,0.1072,0.1054,0.1056,0.1058,0,0,0,0,0,0.0891,0.0901,0.0908,0.0911,0.0922,0.0919,0.092,0.0934,0.095,0.0956,0.0977,0.0979,0.1026,0.1009,0.1011,0.1022,0.1066,0.1069,0.1072,0.1053,0.1056,0.1058,0,0,0,0,0,0,0.0899,0.0904,0.0912,0.0925,0.0927,0.0925,0.0937,0.0943,0.0962,0.0977,0.0985,0.099,0.1017,0.1028,0.1009,0.1055,0.1051,0.1054,0.1036,0.1038,0.104,0.1078,0.1007,0,0,0,0,0,0.0904,0.0912,0.0914,0.0926,0.0932,0.0937,0.0942,0.095,0.0962,0.0973,0.0986,0.101,0.1027,0.104,0.1055,0.1071,0.1101,0.1087,0.1089,0.1091,0.1126,0.1191,0.1202,0.1084,0.1084,0.1084,0,0,0.0908,0.0915,0.0919,0.0928,0.0936,0.0938,0.0944,0.0958,0.0964,0.0974,0.0999,0.1014,0.1034,0.1055,0.1069,0.1067,0.113,0.1095,0.1095,0.1131,0.1196,0.1207,0.1217,0.1086,0.1085,0.1085,0,0,0.0913,0.0931,0.0936,0.0937,0.095,0.0953,0.096,0.0968,0.0982,0.0997,0.1014,0.1048,0.106,0.1085,0.1096,0.1124,0.1138,0.1125,0.1164,0.1224,0.1235,0.1244,0.1247,0.1258,0.1127,0.1127,0.1127,0,0.0923,0.0924,0.0937,0.0939,0.0941,0.0961,0.0961,0.0975,0.0989,0.1012,0.1011,0.1077,0.108,0.1129,0.1137,0.1129,0.1152,0.1141,0.1226,0.1237,0.1247,0.1249,0.126,0.1126,0.1126,0.1126,0.1126,0,0.0918,0.0925,0.0931,0.094,0.0945,0.095,0.0964,0.0987,0.1008,0.1027,0.1086,0.1106,0.116,0.1152,0.1149,0.1224,0.1209,0.1215,0.1215,0.1258,0.1256,0.1268,0.1126,0.1126,0.1126,0.1126,0,0,0.0916,0.0926,0.0927,0.0924,0.0944,0.0941,0.0972,0.1001,0.1037,0.1074,0.1132,0.1165,0.121,0.1231,0.1242,0.1289,0.1344,0.1286,0.129,0.128,0.1447,0.1309,0.1309,0.1367,0.137,0.1373,0.1397,0,0.0908,0.0908,0.0914,0.091,0.091,0.0937,0.0957,0.0995,0.1041,0.1104,0.117,0.1227,0.123,0.1263,0.1319,0.1344,0.1386,0.1335,0.1417,0.1419,0.1285,0.1323,0.1383,0.1406,0.1409,0.1411,0.1413,0,0.089,0.0894,0.0894,0.0893,0.0897,0.0906,0.0957,0.0982,0.1085,0.1128,0.1231,0.1285,0.1377,0.1372,0.1474,0.1443,0.1463,0.1474,0.1475,0.1376,0.1307,0.137,0.1435,0.1433,0.1432,0.143,0.1429,0,0.0865,0.0867,0.0869,0.0868,0.0886,0.0902,0.0926,0.1005,0.1033,0.1177,0.1222,0.1351,0.1419,0.1489,0.1507,0.1511,0.1593,0.1596,0.1491,0.1478,0.1601,0.1592,0.169,0.169,0.169,0.169,0.169,0,0.0833,0.0825,0.0862,0.0857,0.0858,0.0893,0.0927,0.0976,0.107,0.112,0.1252,0.131,0.1462,0.1513,0.1535,0.1528,0.1618,0.1515,0.1494,0.1584,0.1573,0.1606,0.1596,0.1691,0.1691,0.1691,0.169,0,0.0774,0.081,0.0797,0.0828,0.0845,0.0847,0.0892,0.0916,0.1026,0.1105,0.1153,0.1303,0.1391,0.1466,0.1566,0.1538,0.1549,0.1522,0.1572,0.155,0.1391,0.138,0.1442,0.1437,0.1434,0.1431,0.1428,0,0.0736,0.0733,0.0762,0.076,0.077,0.0796,0.0809,0.0894,0.0926,0.1073,0.1099,0.1233,0.1325,0.1342,0.1442,0.1473,0.1465,0.1445,0.1476,0.1402,0.1375,0.137,0.1364,0.1422,0.1421,0.1421,0.142,0,0.0633,0.0657,0.0639,0.0664,0.0673,0.0673,0.0714,0.0725,0.0841,0.0948,0.103,0.1103,0.1199,0.1292,0.131,0.1331,0.145,0.1409,0.1418,0.1447,0.1379,0.1355,0.1354,0.1407,0.1409,0.141,0.1411,0,0.0539,0.0497,0.0506,0.0517,0.054,0.0544,0.0578,0.0624,0.0672,0.0856,0.088,0.1033,0.118,0.1214,0.1221,0.1238,0.1259,0.1228,0.1247,0.1262,0.1195,0.1082,0.1017,0,0,0,0,0,0.0437,0.0378,0.0362,0.0365,0.0407,0.0437,0.0501,0.0554,0.0689,0.0714,0.0798,0.0884,0.0975,0.1051,0.1043,0.1148,0.1245,0.113,0.1212,0.1338,0.1352,0.1292,0,0,0,0,0,0,0.0351,0.0307,0.0302,0.0264,0.0268,0.0293,0.0338,0.0431,0.0462,0.0621,0.068,0.0811,0.0912,0.0972,0.1022,0.1042,0.107,0.1226,0.1223,0.133,0.1343,0.1354,0.1298,0,0,0,0,0]},{"header":{"parameterUnit":"m.s-1","parameterCategory":2,"la1":30.2991,"la2":30.254,"lo1":-89.0895,"lo2":-89.0444,"dy":0.0017,"dx":0.0017,"nx":28,"ny":28,"refTime":"2025-04-18T03:00:00:Z","depth":"4","parameterNumber":3,"parameterNumberName":"V-component_of_CURRENTS"},"data":[0,0,0,0,0,0,0,0,0,0,0,0,0,0,0,0,0,0,0,0,0,0,0,0,0,0,0,0,0,0,0,0,0,0,0,0,0,0,0,0,0,0,0,0,0,0,0,0,0,0,0,0,0,0,0,0,0,0,-0.0092,-0.0092,0,-0.0101,-0.0101,-0.0101,-0.0107,-0.0107,-0.0107,-0.0107,-0.0102,-0.0101,-0.0101,0,0,0,0,0,0,0,0,0,0,0,0,0,-0.0077,-0.0077,-0.0092,-0.0092,-0.0093,-0.0101,-0.0101,-0.0101,-0.0107,-0.0107,-0.0107,-0.0107,-0.0102,-0.0101,-0.0101,0,0,0,0,0,0,0,0,0,0,0,0,0,-0.0084,-0.0077,-0.0092,-0.0097,-0.0097,-0.0101,-0.0101,-0.0101,-0.0107,-0.0107,-0.0107,-0.0107,-0.0102,-0.0101,-0.0101,-0.0097,0,0,-0.01,-0.01,0,0,0,0,0,0,0,0,-0.0084,-0.0085,-0.0096,-0.0097,-0.0097,-0.0103,-0.0094,-0.0099,-0.0107,-0.0103,-0.0107,-0.0107,-0.0101,-0.0101,-0.0102,-0.0096,-0.0096,-0.01,-0.01,-0.01,-0.01,0,0,0,0,0,0,0,-0.0083,-0.0084,-0.0095,-0.0096,-0.0097,-0.0097,-0.0098,-0.0095,-0.0101,-0.0103,-0.0104,-0.0105,-0.0101,-0.0102,-0.0102,-0.0096,-0.01,-0.01,-0.0099,-0.0099,-0.0068,-0.0067,0,0,0,0,0,0,-0.0083,-0.0084,-0.0095,-0.0096,-0.0091,-0.0097,-0.0099,-0.0101,-0.0101,-0.0101,-0.0105,-0.0106,-0.0103,-0.0102,-0.0101,-0.008,-0.01,-0.0099,-0.0099,-0.0068,-0.0067,-0.0067,0,0,0,0,0,0,-0.0083,-0.0084,-0.0095,-0.009,-0.0092,-0.0098,-0.01,-0.0101,-0.0103,-0.0103,-0.0103,-0.0107,-0.0103,-0.0102,-0.0092,-0.008,-0.0099,-0.0099,-0.0069,-0.0068,-0.0067,-0.0047,0,0,0,0,0,0,-0.0082,-0.0084,-0.0087,-0.009,-0.0092,-0.0095,-0.01,-0.0101,-0.0104,-0.0105,-0.0104,-0.0104,-0.0103,-0.0092,-0.0092,-0.008,-0.0099,-0.007,-0.0069,-0.0067,-0.0049,-0.0046,-0.0043,0,0,0,0,0,-0.0082,-0.0083,-0.0087,-0.0089,-0.0096,-0.0095,-0.0095,-0.01,-0.0104,-0.0103,-0.0099,-0.0104,-0.0084,-0.0092,-0.0091,-0.0079,-0.007,-0.0069,-0.0068,-0.005,-0.0046,-0.0043,0,0,0,0,0,0,-0.008,-0.0084,-0.0088,-0.0092,-0.0093,-0.0096,-0.0096,-0.01,-0.0097,-0.0098,-0.0097,-0.0096,-0.0084,-0.0083,-0.0091,-0.0066,-0.0077,-0.0076,-0.0064,-0.0061,-0.0058,-0.0071,-0.0098,0,0,0,0,0,-0.0081,-0.0083,-0.0086,-0.0089,-0.0089,-0.0094,-0.0095,-0.0097,-0.0095,-0.0095,-0.0093,-0.0087,-0.0077,-0.0071,-0.0067,-0.0052,-0.0071,-0.0043,-0.004,-0.0038,-0.0047,-0.0057,-0.0057,-0.0062,-0.0062,-0.0062,0,0,-0.0083,-0.0085,-0.0087,-0.0089,-0.0091,-0.0083,-0.0094,-0.0095,-0.0085,-0.0094,-0.008,-0.0081,-0.0073,-0.0057,-0.0051,-0.0054,-0.0047,-0.0036,-0.0034,-0.0045,-0.0056,-0.0055,-0.0055,-0.0061,-0.0061,-0.0061,0,0,-0.0079,-0.0087,-0.0084,-0.0081,-0.0081,-0.008,-0.0079,-0.008,-0.0078,-0.0068,-0.0069,-0.0066,-0.005,-0.0044,-0.0037,-0.0017,-0.0035,-0.0009,-0.0,-0.0009,-0.001,-0.001,-0.0038,-0.0041,-0.0002,-0.0002,-0.0002,0,-0.0081,-0.0076,-0.0083,-0.0074,-0.0068,-0.0076,-0.0064,-0.0061,-0.0058,-0.0055,-0.006,-0.0045,-0.0045,-0.0022,-0.0017,-0.0012,-0.0026,-0.0013,-0.0007,-0.0008,-0.0008,-0.0038,-0.0041,-0.0001,-0.0001,-0.0001,-0.0002,0,-0.0071,-0.0065,-0.0061,-0.005,-0.0045,-0.0038,-0.0031,-0.0027,-0.0027,-0.0028,-0.0017,-0.0018,-0.0011,-0.0005,-0.0007,-0.0001,-0.0013,-0.0007,-0.0019,-0.0007,-0.0038,-0.0042,0.0,0.0,-0.0,-0.0001,0,0,-0.0077,-0.0057,-0.0056,-0.004,-0.0031,-0.0022,-0.0006,0.0005,0.0016,0.0012,0.0024,0.0028,0.0014,0.002,0.0021,0.0011,-0.0011,0.0,-0.0001,-0.0034,-0.0046,-0.0015,-0.0018,-0.0,-0.0001,-0.0001,-0.0069,0,-0.0065,-0.004,-0.0035,-0.0005,0.0011,0.0015,0.0034,0.0041,0.0042,0.0051,0.0042,0.005,0.0032,0.0035,0.0022,0.0006,-0.002,0.0005,-0.0047,-0.005,-0.0029,-0.002,-0.0002,-0.0072,-0.0073,-0.0073,-0.0074,0,-0.0055,-0.0036,-0.0008,0.0027,0.0034,0.0051,0.0076,0.0092,0.0096,0.0092,0.0087,0.0078,0.0068,0.0049,0.0006,0.0025,-0.002,-0.0043,-0.0045,-0.0029,-0.0026,-0.0084,-0.0082,-0.0081,-0.0081,-0.008,-0.008,0,-0.0049,-0.0015,0.001,0.0021,0.0055,0.0071,0.009,0.01,0.0128,0.0115,0.0123,0.0101,0.0104,0.0052,0.0006,0.0001,-0.0046,-0.0056,-0.008,-0.0079,-0.0098,-0.0097,-0.011,-0.011,-0.011,-0.011,-0.0109,0,-0.0035,-0.0014,0.0017,0.0034,0.0076,0.0087,0.0131,0.0134,0.0159,0.0196,0.0146,0.0168,0.0106,0.008,0.0014,-0.0033,-0.0042,-0.0085,-0.0089,-0.0088,-0.0085,-0.0101,-0.0099,-0.0112,-0.0112,-0.0111,-0.0111,0,-0.0032,-0.0016,0.0023,0.0064,0.0082,0.0112,0.0179,0.0219,0.0209,0.0256,0.0256,0.0227,0.0189,0.0124,0.0047,-0.0005,-0.0067,-0.0091,-0.0091,-0.0093,-0.0108,-0.0104,-0.0137,-0.0136,-0.0136,-0.0135,-0.0135,0,-0.0027,-0.0009,0.0049,0.0092,0.0115,0.0169,0.0222,0.0244,0.0293,0.0303,0.0336,0.0301,0.0274,0.0181,0.01,-0.0025,-0.0044,-0.01,-0.0109,-0.0108,-0.0109,-0.0106,-0.0103,-0.0134,-0.0134,-0.0134,-0.0134,0,-0.0004,0.0013,0.0062,0.0141,0.0204,0.0273,0.0343,0.0376,0.0408,0.0402,0.0406,0.0343,0.0304,0.0211,0.0122,0.003,-0.0072,-0.0095,-0.0098,-0.0107,-0.0105,-0.0106,-0.0103,-0.0132,-0.0132,-0.0132,-0.0132,0,0.0028,0.0074,0.0143,0.0212,0.0287,0.0359,0.0385,0.0447,0.0482,0.0478,0.0486,0.0404,0.0364,0.0241,0.0163,0.008,0.0043,-0.0013,-0.002,-0.0024,0.0036,0.0058,0.0075,0,0,0,0,0,0.0074,0.0144,0.0216,0.03,0.0364,0.0398,0.0472,0.0494,0.051,0.0525,0.0504,0.046,0.0334,0.0278,0.0201,0.0166,0.0028,0.0071,-0.0039,-0.0122,-0.0124,-0.0069,0,0,0,0,0,0,0.0119,0.0203,0.0238,0.0348,0.0401,0.0483,0.0518,0.0529,0.0535,0.0525,0.0468,0.0423,0.0312,0.038,0.0193,0.0168,0.0083,0.0013,0.001,-0.012,-0.0122,-0.0124,-0.0068,0,0,0,0,0]}]]